Heute – Wetterdaten der letzten 3 Stunden im 5 Min. Intervall

Wetterdaten der letzten 3 Stunden im 5 Min. Intervall
DatumAussentemperaturLuftdruckLuftfeuchtigkeitWindstärke Regen
22.02.19, 05:20 8.6 °C 1032.7 hPa 96 % 0.0 km/h 0.4 mm
22.02.19, 05:15 8.6 °C 1032.6 hPa 96 % 1.8 km/h 0.4 mm
22.02.19, 05:10 8.6 °C 1032.6 hPa 96 % 0.0 km/h 0.4 mm
22.02.19, 05:05 8.6 °C 1032.5 hPa 96 % 0.0 km/h 0.4 mm
22.02.19, 04:55 8.6 °C 1032.3 hPa 96 % 0.0 km/h 0.4 mm
22.02.19, 04:50 8.6 °C 1032.3 hPa 96 % 0.0 km/h 0.4 mm
22.02.19, 04:45 8.6 °C 1032.2 hPa 96 % 3.2 km/h 0.4 mm
22.02.19, 04:40 8.6 °C 1032.2 hPa 96 % 3.2 km/h 0.4 mm
22.02.19, 04:35 8.6 °C 1032.2 hPa 96 % 1.8 km/h 0.4 mm
22.02.19, 04:30 8.6 °C 1032.3 hPa 96 % 1.8 km/h 0.4 mm
22.02.19, 04:25 8.6 °C 1032.3 hPa 96 % 0.0 km/h 0.4 mm
22.02.19, 04:20 8.6 °C 1032.2 hPa 96 % 0.0 km/h 0.4 mm
22.02.19, 04:15 8.6 °C 1032.2 hPa 95 % 3.2 km/h 0.4 mm
22.02.19, 04:10 8.7 °C 1032.1 hPa 95 % 0.0 km/h 0.4 mm
22.02.19, 04:05 8.7 °C 1032.1 hPa 95 % 0.0 km/h 0.4 mm
22.02.19, 03:55 8.7 °C 1032.1 hPa 95 % 0.0 km/h 0.4 mm
22.02.19, 03:50 8.7 °C 1032.2 hPa 95 % 1.8 km/h 0.4 mm
22.02.19, 03:45 8.7 °C 1032.2 hPa 95 % 0.0 km/h 0.4 mm
22.02.19, 03:40 8.7 °C 1032.1 hPa 95 % 1.8 km/h 0.4 mm
22.02.19, 03:35 8.8 °C 1032.1 hPa 95 % 0.0 km/h 0.4 mm
22.02.19, 03:30 8.8 °C 1032.1 hPa 95 % 3.2 km/h 0.4 mm
22.02.19, 03:25 8.8 °C 1032.0 hPa 95 % 0.0 km/h 0.4 mm
22.02.19, 03:20 8.8 °C 1032.0 hPa 95 % 1.8 km/h 0.4 mm
22.02.19, 03:15 8.8 °C 1032.1 hPa 95 % 0.0 km/h 0.4 mm
22.02.19, 03:10 8.8 °C 1032.0 hPa 95 % 0.0 km/h 0.4 mm
22.02.19, 03:05 8.8 °C 1032.0 hPa 95 % 0.0 km/h 0.4 mm
22.02.19, 02:55 8.8 °C 1031.9 hPa 95 % 3.2 km/h 0.4 mm
22.02.19, 02:50 8.8 °C 1031.9 hPa 95 % 0.0 km/h 0.4 mm
22.02.19, 02:45 8.8 °C 1031.9 hPa 95 % 0.0 km/h 0.4 mm
22.02.19, 02:40 8.8 °C 1031.9 hPa 95 % 0.0 km/h 0.2 mm
22.02.19, 02:35 8.8 °C 1031.9 hPa 95 % 0.0 km/h 0.2 mm
22.02.19, 02:30 8.8 °C 1031.9 hPa 95 % 0.0 km/h 0.2 mm
22.02.19, 02:25 8.8 °C 1031.9 hPa 95 % 0.0 km/h 0.2 mm